Year,Month,Day,Hour,Minute,Value (Times are PST for temperature in C)
2008,04,21,00,00,2.70
2008,04,21,00,01,2.70
2008,04,21,00,02,2.70
2008,04,21,00,03,2.70
2008,04,21,00,04,2.70
2008,04,21,00,05,2.70
2008,04,21,00,06,2.70
2008,04,21,00,07,2.70
2008,04,21,00,08,2.70
2008,04,21,00,09,2.70
2008,04,21,00,10,2.80
2008,04,21,00,11,3.00
2008,04,21,00,12,3.20
2008,04,21,00,13,3.30
2008,04,21,00,14,3.30
2008,04,21,00,15,3.30
2008,04,21,00,16,3.40
2008,04,21,00,17,3.50
2008,04,21,00,18,3.70
2008,04,21,00,19,3.70
2008,04,21,00,20,3.80
2008,04,21,00,21,3.80
2008,04,21,00,22,3.80
2008,04,21,00,23,3.80
2008,04,21,00,24,3.80
2008,04,21,00,25,3.80
2008,04,21,00,26,3.80
2008,04,21,00,27,3.80
2008,04,21,00,28,3.80
2008,04,21,00,29,3.80
2008,04,21,00,30,3.80
2008,04,21,00,31,3.80
2008,04,21,00,32,3.80
2008,04,21,00,33,3.80
2008,04,21,00,34,3.80
2008,04,21,00,35,3.80
2008,04,21,00,36,3.70
2008,04,21,00,37,3.70
2008,04,21,00,38,3.70
2008,04,21,00,39,3.70
2008,04,21,00,40,3.70
2008,04,21,00,41,3.60
2008,04,21,00,42,3.60
2008,04,21,00,43,3.60
2008,04,21,00,44,3.60
2008,04,21,00,45,3.60
2008,04,21,00,46,3.60
2008,04,21,00,47,3.60
2008,04,21,00,48,3.60
2008,04,21,00,49,3.60
2008,04,21,00,50,3.50
2008,04,21,00,51,3.50
2008,04,21,00,52,3.50
2008,04,21,00,53,3.50
2008,04,21,00,54,3.50
2008,04,21,00,55,3.50
2008,04,21,00,56,3.50
2008,04,21,00,57,3.40
2008,04,21,00,58,3.40
2008,04,21,00,59,3.40
2008,04,21,01,00,3.30
2008,04,21,01,01,3.30
2008,04,21,01,02,3.20
2008,04,21,01,03,3.20
2008,04,21,01,04,3.10
2008,04,21,01,05,3.10
2008,04,21,01,06,3.10
2008,04,21,01,07,3.10
2008,04,21,01,08,3.10
2008,04,21,01,09,2.90
2008,04,21,01,10,2.90
2008,04,21,01,11,2.90
2008,04,21,01,12,2.90
2008,04,21,01,13,2.90
2008,04,21,01,14,2.90
2008,04,21,01,15,2.90
2008,04,21,01,16,2.90
2008,04,21,01,17,2.90
2008,04,21,01,18,2.90
2008,04,21,01,19,2.90
2008,04,21,01,20,2.90
2008,04,21,01,21,2.90
2008,04,21,01,22,2.90
2008,04,21,01,23,2.90
2008,04,21,01,24,2.80
2008,04,21,01,25,2.80
2008,04,21,01,26,2.80
2008,04,21,01,27,2.70
2008,04,21,01,28,2.70
2008,04,21,01,29,2.70
2008,04,21,01,30,2.70
2008,04,21,01,31,2.70
2008,04,21,01,32,2.70
2008,04,21,01,33,2.60
2008,04,21,01,34,2.60
2008,04,21,01,35,2.60
2008,04,21,01,36,2.50
2008,04,21,01,37,2.50
2008,04,21,01,38,2.50
2008,04,21,01,39,2.50
2008,04,21,01,40,2.50
2008,04,21,01,41,2.50
2008,04,21,01,42,2.50
2008,04,21,01,43,2.40
2008,04,21,01,44,2.40
2008,04,21,01,45,2.40
2008,04,21,01,46,2.40
2008,04,21,01,47,2.40
2008,04,21,01,48,2.30
2008,04,21,01,49,2.30
2008,04,21,01,50,2.30
2008,04,21,01,51,2.30
2008,04,21,01,52,2.30
2008,04,21,01,53,2.30
2008,04,21,01,54,2.30
2008,04,21,01,55,2.30
2008,04,21,01,56,2.30
2008,04,21,01,57,2.20
2008,04,21,01,58,2.20
2008,04,21,01,59,2.20
2008,04,21,02,00,2.20
2008,04,21,02,01,2.20
2008,04,21,02,02,2.10
2008,04,21,02,03,2.10
2008,04,21,02,04,2.00
2008,04,21,02,05,2.00
2008,04,21,02,06,1.90
2008,04,21,02,07,1.90
2008,04,21,02,08,1.80
2008,04,21,02,09,1.80
2008,04,21,02,10,1.80
2008,04,21,02,11,1.70
2008,04,21,02,12,1.70
2008,04,21,02,13,1.60
2008,04,21,02,14,1.60
2008,04,21,02,15,1.60
2008,04,21,02,16,1.50
2008,04,21,02,17,1.50
2008,04,21,02,18,1.50
2008,04,21,02,19,1.50
2008,04,21,02,20,1.40
2008,04,21,02,21,1.40
2008,04,21,02,22,1.40
2008,04,21,02,23,1.40
2008,04,21,02,24,1.40
2008,04,21,02,25,1.40
2008,04,21,02,26,1.40
2008,04,21,02,27,1.40
2008,04,21,02,28,1.40
2008,04,21,02,29,1.40
2008,04,21,02,30,1.40
2008,04,21,02,31,1.40
2008,04,21,02,32,1.40
2008,04,21,02,33,1.40
2008,04,21,02,34,1.50
2008,04,21,02,35,1.50
2008,04,21,02,36,1.50
2008,04,21,02,37,1.50
2008,04,21,02,38,1.50
2008,04,21,02,39,1.50
2008,04,21,02,40,1.50
2008,04,21,02,41,1.60
2008,04,21,02,42,1.60
2008,04,21,02,43,1.60
2008,04,21,02,44,1.60
2008,04,21,02,45,1.60
2008,04,21,02,46,1.60
2008,04,21,02,47,1.60
2008,04,21,02,48,1.60
2008,04,21,02,49,1.60
2008,04,21,02,50,1.70
2008,04,21,02,51,1.70
2008,04,21,02,52,1.70
2008,04,21,02,53,1.70
2008,04,21,02,54,1.70
2008,04,21,02,55,1.80
2008,04,21,02,56,1.80
2008,04,21,02,57,1.80
2008,04,21,02,58,1.80
2008,04,21,02,59,1.80
2008,04,21,03,00,1.80
2008,04,21,03,01,1.90
2008,04,21,03,02,1.90
2008,04,21,03,03,1.90
2008,04,21,03,04,1.90
2008,04,21,03,05,1.90
2008,04,21,03,06,1.90
2008,04,21,03,07,1.90
2008,04,21,03,08,2.00
2008,04,21,03,09,2.00
2008,04,21,03,10,2.00
2008,04,21,03,11,1.90
2008,04,21,03,12,1.90
2008,04,21,03,13,1.90
2008,04,21,03,14,1.90
2008,04,21,03,15,1.90
2008,04,21,03,16,1.90
2008,04,21,03,17,1.90
2008,04,21,03,18,1.80
2008,04,21,03,19,1.80
2008,04,21,03,20,1.80
2008,04,21,03,21,1.80
2008,04,21,03,22,1.80
2008,04,21,03,23,1.80
2008,04,21,03,24,1.80
2008,04,21,03,25,1.80
2008,04,21,03,26,1.80
2008,04,21,03,27,1.80
2008,04,21,03,28,1.80
2008,04,21,03,29,1.80
2008,04,21,03,30,1.80
2008,04,21,03,31,1.80
2008,04,21,03,32,1.80
2008,04,21,03,33,1.80
2008,04,21,03,34,1.80
2008,04,21,03,35,1.80
2008,04,21,03,36,1.80
2008,04,21,03,37,1.80
2008,04,21,03,38,1.80
2008,04,21,03,39,1.80
2008,04,21,03,40,1.80
2008,04,21,03,41,1.80
2008,04,21,03,42,1.80
2008,04,21,03,43,1.80
2008,04,21,03,44,1.80
2008,04,21,03,45,1.80
2008,04,21,03,46,1.80
2008,04,21,03,47,1.90
2008,04,21,03,48,1.90
2008,04,21,03,49,1.90
2008,04,21,03,50,1.90
2008,04,21,03,51,1.90
2008,04,21,03,52,1.90
2008,04,21,03,53,1.90
2008,04,21,03,54,1.90
2008,04,21,03,55,1.90
2008,04,21,03,56,1.90
2008,04,21,03,57,2.00
2008,04,21,03,58,2.00
2008,04,21,03,59,2.00
2008,04,21,04,00,2.00
2008,04,21,04,01,2.00
2008,04,21,04,02,2.00
2008,04,21,04,03,2.00
2008,04,21,04,04,2.10
2008,04,21,04,05,2.10
2008,04,21,04,06,2.10
2008,04,21,04,07,2.10
2008,04,21,04,08,2.10
2008,04,21,04,09,2.10
2008,04,21,04,10,2.10
2008,04,21,04,11,2.20
2008,04,21,04,12,2.20
2008,04,21,04,13,2.20
2008,04,21,04,14,2.20
2008,04,21,04,15,2.20
2008,04,21,04,16,2.20
2008,04,21,04,17,2.20
2008,04,21,04,18,2.20
2008,04,21,04,19,2.20
2008,04,21,04,20,2.20
2008,04,21,04,21,2.20
2008,04,21,04,22,2.20
2008,04,21,04,23,2.30
2008,04,21,04,24,2.30
2008,04,21,04,25,2.30
2008,04,21,04,26,2.30
2008,04,21,04,27,2.30
2008,04,21,04,28,2.30
2008,04,21,04,29,2.30
2008,04,21,04,30,2.30
2008,04,21,04,31,2.30
2008,04,21,04,32,2.20
2008,04,21,04,33,2.20
2008,04,21,04,34,2.20
2008,04,21,04,35,2.20
2008,04,21,04,36,2.20
2008,04,21,04,37,2.20
2008,04,21,04,38,2.20
2008,04,21,04,39,2.20
2008,04,21,04,40,2.20
2008,04,21,04,41,2.20
2008,04,21,04,42,2.20
2008,04,21,04,43,2.20
2008,04,21,04,44,2.20
2008,04,21,04,45,2.20
2008,04,21,04,46,2.20
2008,04,21,04,47,2.20
2008,04,21,04,48,2.20
2008,04,21,04,49,2.20
2008,04,21,04,50,2.20
2008,04,21,04,51,2.20
2008,04,21,04,52,2.20
2008,04,21,04,53,2.20
2008,04,21,04,54,2.20
2008,04,21,04,55,2.10
2008,04,21,04,56,2.10
2008,04,21,04,57,2.10
2008,04,21,04,58,2.10
2008,04,21,04,59,2.10
2008,04,21,05,00,2.10
2008,04,21,05,01,2.10
2008,04,21,05,02,2.10
2008,04,21,05,03,2.10
2008,04,21,05,04,2.10
2008,04,21,05,05,2.10
2008,04,21,05,06,2.00
2008,04,21,05,07,2.00
2008,04,21,05,08,2.00
2008,04,21,05,09,2.00
2008,04,21,05,10,2.00
2008,04,21,05,11,1.90
2008,04,21,05,12,1.90
2008,04,21,05,13,1.90
2008,04,21,05,14,1.90
2008,04,21,05,15,1.90
2008,04,21,05,16,1.90
2008,04,21,05,17,1.80
2008,04,21,05,18,1.80
2008,04,21,05,19,1.80
2008,04,21,05,20,1.80
2008,04,21,05,21,1.80
2008,04,21,05,22,1.80
2008,04,21,05,23,1.80
2008,04,21,05,24,1.80
2008,04,21,05,25,1.80
2008,04,21,05,26,1.70
2008,04,21,05,27,1.70
2008,04,21,05,28,1.70
2008,04,21,05,29,1.70
2008,04,21,05,30,1.60
2008,04,21,05,31,1.60
2008,04,21,05,32,1.60
2008,04,21,05,33,1.60
2008,04,21,05,34,1.50
2008,04,21,05,35,1.50
2008,04,21,05,36,1.50
2008,04,21,05,37,1.50
2008,04,21,05,38,1.40
2008,04,21,05,39,1.40
2008,04,21,05,40,1.40
2008,04,21,05,41,1.40
2008,04,21,05,42,1.40
2008,04,21,05,43,1.40
2008,04,21,05,44,1.40
2008,04,21,05,45,1.40
2008,04,21,05,46,1.40
2008,04,21,05,47,1.40
2008,04,21,05,48,1.40
2008,04,21,05,49,1.40
2008,04,21,05,50,1.40
2008,04,21,05,51,1.40
2008,04,21,05,52,1.40
2008,04,21,05,53,1.40
2008,04,21,05,54,1.40
2008,04,21,05,55,1.40
2008,04,21,05,56,1.50
2008,04,21,05,57,1.50
2008,04,21,05,58,1.50
2008,04,21,05,59,1.50
2008,04,21,06,00,1.50
2008,04,21,06,01,1.50
2008,04,21,06,02,1.60
2008,04,21,06,03,1.60
2008,04,21,06,04,1.60
2008,04,21,06,05,1.60
2008,04,21,06,06,1.60
2008,04,21,06,07,1.60
2008,04,21,06,08,1.60
2008,04,21,06,09,1.60
2008,04,21,06,10,1.60
2008,04,21,06,11,1.60
2008,04,21,06,12,1.50
2008,04,21,06,13,1.50
2008,04,21,06,14,1.50
2008,04,21,06,15,1.50
2008,04,21,06,16,1.50
2008,04,21,06,17,1.50
2008,04,21,06,18,1.50
2008,04,21,06,19,1.50
2008,04,21,06,20,1.50
2008,04,21,06,21,1.50
2008,04,21,06,22,1.50
2008,04,21,06,23,1.50
2008,04,21,06,24,1.50
2008,04,21,06,25,1.50
2008,04,21,06,26,1.50
2008,04,21,06,27,1.50
2008,04,21,06,28,1.60
2008,04,21,06,29,1.60
2008,04,21,06,30,1.60
2008,04,21,06,31,1.60
2008,04,21,06,32,1.60
2008,04,21,06,33,1.60
2008,04,21,06,34,1.60
2008,04,21,06,35,1.60
2008,04,21,06,36,1.60
2008,04,21,06,37,1.60
2008,04,21,06,38,1.60
2008,04,21,06,39,1.60
2008,04,21,06,40,1.60
2008,04,21,06,41,1.60
2008,04,21,06,42,1.60
2008,04,21,06,43,1.70
2008,04,21,06,44,1.70
2008,04,21,06,45,1.70
2008,04,21,06,46,1.70
2008,04,21,06,47,1.70
2008,04,21,06,48,1.80
2008,04,21,06,49,1.80
2008,04,21,06,50,1.80
2008,04,21,06,51,1.80
2008,04,21,06,52,1.80
2008,04,21,06,53,1.80
2008,04,21,06,54,1.80
2008,04,21,06,55,1.80
2008,04,21,06,56,1.80
2008,04,21,06,57,1.80
2008,04,21,06,58,1.80
2008,04,21,06,59,1.80
2008,04,21,07,00,1.80
2008,04,21,07,01,1.80
2008,04,21,07,02,1.80
2008,04,21,07,03,1.80
2008,04,21,07,04,1.80
2008,04,21,07,05,1.80
2008,04,21,07,06,1.80
2008,04,21,07,07,1.80
2008,04,21,07,08,1.80
2008,04,21,07,09,1.80
2008,04,21,07,10,1.80
2008,04,21,07,11,1.80
2008,04,21,07,12,1.80
2008,04,21,07,13,1.90
2008,04,21,07,14,1.90
2008,04,21,07,15,2.00
2008,04,21,07,16,2.10
2008,04,21,07,17,2.10
2008,04,21,07,18,2.20
2008,04,21,07,19,2.20
2008,04,21,07,20,2.20
2008,04,21,07,21,2.20
2008,04,21,07,22,2.20
2008,04,21,07,23,2.30
2008,04,21,07,24,2.30
2008,04,21,07,25,2.40
2008,04,21,07,26,2.40
2008,04,21,07,27,2.40
2008,04,21,07,28,2.50
2008,04,21,07,29,2.50
2008,04,21,07,30,2.50
2008,04,21,07,31,2.50
2008,04,21,07,32,2.60
2008,04,21,07,33,2.60
2008,04,21,07,34,2.60
2008,04,21,07,35,2.70
2008,04,21,07,36,2.70
2008,04,21,07,37,2.70
2008,04,21,07,38,2.70
2008,04,21,07,39,2.80
2008,04,21,07,40,2.80
2008,04,21,07,41,2.80
2008,04,21,07,42,2.80
2008,04,21,07,43,2.80
2008,04,21,07,44,2.80
2008,04,21,07,45,2.80
2008,04,21,07,46,2.90
2008,04,21,07,47,2.90
2008,04,21,07,48,2.90
2008,04,21,07,49,3.00
2008,04,21,07,50,3.10
2008,04,21,07,51,3.10
2008,04,21,07,52,3.10
2008,04,21,07,53,3.10
2008,04,21,07,54,3.10
2008,04,21,07,55,3.10
2008,04,21,07,56,3.10
2008,04,21,07,57,3.10
2008,04,21,07,58,3.10
2008,04,21,07,59,3.10
2008,04,21,08,00,3.10
2008,04,21,08,01,3.10
2008,04,21,08,02,3.10
2008,04,21,08,03,3.10
2008,04,21,08,04,3.10
2008,04,21,08,05,3.10
2008,04,21,08,06,3.20
2008,04,21,08,07,3.20
2008,04,21,08,08,3.30
2008,04,21,08,09,3.30
2008,04,21,08,10,3.30
2008,04,21,08,11,3.30
2008,04,21,08,12,3.30
2008,04,21,08,13,3.40
2008,04,21,08,14,3.40
2008,04,21,08,15,3.40
2008,04,21,08,16,3.40
2008,04,21,08,17,3.40
2008,04,21,08,18,3.40
2008,04,21,08,19,3.40
2008,04,21,08,20,3.40
2008,04,21,08,21,3.40
2008,04,21,08,22,3.40
2008,04,21,08,23,3.40
2008,04,21,08,24,3.40
2008,04,21,08,25,3.40
2008,04,21,08,26,3.40
2008,04,21,08,27,3.40
2008,04,21,08,28,3.40
2008,04,21,08,29,3.50
2008,04,21,08,30,3.50
2008,04,21,08,31,3.60
2008,04,21,08,32,3.60
2008,04,21,08,33,3.70
2008,04,21,08,34,3.70
2008,04,21,08,35,3.80
2008,04,21,08,36,3.80
2008,04,21,08,37,3.80
2008,04,21,08,38,3.80
2008,04,21,08,39,3.80
2008,04,21,08,40,3.80
2008,04,21,08,41,3.80
2008,04,21,08,42,3.80
2008,04,21,08,43,3.90
2008,04,21,08,44,3.90
2008,04,21,08,45,3.90
2008,04,21,08,46,3.90
2008,04,21,08,47,4.00
2008,04,21,08,48,4.00
2008,04,21,08,49,4.00
2008,04,21,08,50,4.00
2008,04,21,08,51,4.10
2008,04,21,08,52,4.20
2008,04,21,08,53,4.20
2008,04,21,08,54,4.20
2008,04,21,08,55,4.20
2008,04,21,08,56,4.30
2008,04,21,08,57,4.30
2008,04,21,08,58,4.50
2008,04,21,08,59,4.60
2008,04,21,09,00,4.60
2008,04,21,09,01,4.60
2008,04,21,09,02,4.60
2008,04,21,09,03,4.60
2008,04,21,09,04,4.60
2008,04,21,09,05,4.60
2008,04,21,09,06,4.60
2008,04,21,09,07,4.60
2008,04,21,09,08,4.60
2008,04,21,09,09,4.60
2008,04,21,09,10,4.60
2008,04,21,09,11,4.60
2008,04,21,09,12,4.60
2008,04,21,09,13,4.50
2008,04,21,09,14,4.50
2008,04,21,09,15,4.50
2008,04,21,09,16,4.50
2008,04,21,09,17,4.50
2008,04,21,09,18,4.50
2008,04,21,09,19,4.50
2008,04,21,09,20,4.60
2008,04,21,09,21,4.60
2008,04,21,09,22,4.50
2008,04,21,09,23,4.50
2008,04,21,09,24,4.50
2008,04,21,09,25,4.50
2008,04,21,09,26,4.50
2008,04,21,09,27,4.50
2008,04,21,09,28,4.50
2008,04,21,09,29,4.50
2008,04,21,09,30,4.50
2008,04,21,09,31,4.50
2008,04,21,09,32,4.50
2008,04,21,09,33,4.50
2008,04,21,09,34,4.50
2008,04,21,09,35,4.50
2008,04,21,09,36,4.50
2008,04,21,09,37,4.50
2008,04,21,09,38,4.60
2008,04,21,09,39,4.60
2008,04,21,09,40,4.60
2008,04,21,09,41,4.70
2008,04,21,09,42,4.70
2008,04,21,09,43,4.60
2008,04,21,09,44,4.60
2008,04,21,09,45,4.60
2008,04,21,09,46,4.60
2008,04,21,09,47,4.60
2008,04,21,09,48,4.70
2008,04,21,09,49,4.60
2008,04,21,09,50,4.60
2008,04,21,09,51,4.60
2008,04,21,09,52,4.60
2008,04,21,09,53,4.60
2008,04,21,09,54,4.60
2008,04,21,09,55,4.50
2008,04,21,09,56,4.50
2008,04,21,09,57,4.50
2008,04,21,09,58,4.50
2008,04,21,09,59,4.50
2008,04,21,10,00,4.50
2008,04,21,10,01,4.50
2008,04,21,10,02,4.50
2008,04,21,10,03,4.50
2008,04,21,10,04,4.50
2008,04,21,10,05,4.60
2008,04,21,10,06,4.60
2008,04,21,10,07,4.60
2008,04,21,10,08,4.70
2008,04,21,10,09,4.70
2008,04,21,10,10,4.70
2008,04,21,10,11,4.70
2008,04,21,10,12,4.80
2008,04,21,10,13,4.90
2008,04,21,10,14,4.90
2008,04,21,10,15,4.90
2008,04,21,10,16,4.90
2008,04,21,10,17,4.90
2008,04,21,10,18,4.90
2008,04,21,10,19,4.90
2008,04,21,10,20,4.90
2008,04,21,10,21,4.90
2008,04,21,10,22,5.00
2008,04,21,10,23,5.10
2008,04,21,10,24,5.10
2008,04,21,10,25,5.10
2008,04,21,10,26,5.10
2008,04,21,10,27,5.10
2008,04,21,10,28,5.10
2008,04,21,10,29,5.10
2008,04,21,10,30,5.10
2008,04,21,10,31,5.10
2008,04,21,10,32,5.20
2008,04,21,10,33,5.20
2008,04,21,10,34,5.10
2008,04,21,10,35,5.10
2008,04,21,10,36,5.10
2008,04,21,10,37,5.10
2008,04,21,10,38,5.10
2008,04,21,10,39,5.20
2008,04,21,10,40,5.30
2008,04,21,10,41,5.30
2008,04,21,10,42,5.30
2008,04,21,10,43,5.30
2008,04,21,10,44,5.40
2008,04,21,10,45,5.40
2008,04,21,10,46,5.40
2008,04,21,10,47,5.50
2008,04,21,10,48,5.60
2008,04,21,10,49,5.70
2008,04,21,10,50,5.70
2008,04,21,10,51,5.70
2008,04,21,10,52,5.70
2008,04,21,10,53,5.70
2008,04,21,10,54,5.80
2008,04,21,10,55,5.70
2008,04,21,10,56,5.70
2008,04,21,10,57,5.70
2008,04,21,10,58,5.70
2008,04,21,10,59,5.60
2008,04,21,11,00,5.50
2008,04,21,11,01,5.50
2008,04,21,11,02,5.40
2008,04,21,11,03,5.30
2008,04,21,11,04,5.40
2008,04,21,11,05,5.50
2008,04,21,11,06,5.50
2008,04,21,11,07,5.50
2008,04,21,11,08,5.60
2008,04,21,11,09,5.60
2008,04,21,11,10,5.70
2008,04,21,11,11,5.80
2008,04,21,11,12,5.80
2008,04,21,11,13,5.70
2008,04,21,11,14,5.80
2008,04,21,11,15,5.90
2008,04,21,11,16,5.70
2008,04,21,11,17,5.50
2008,04,21,11,18,5.40
2008,04,21,11,19,5.50
2008,04,21,11,20,5.50
2008,04,21,11,21,5.60
2008,04,21,11,22,5.60
2008,04,21,11,23,5.50
2008,04,21,11,24,5.30
2008,04,21,11,25,5.20
2008,04,21,11,26,5.20
2008,04,21,11,27,5.20
2008,04,21,11,28,5.30
2008,04,21,11,29,5.30
2008,04,21,11,30,5.30
2008,04,21,11,31,5.40
2008,04,21,11,32,5.30
2008,04,21,11,33,5.30
2008,04,21,11,34,5.40
2008,04,21,11,35,5.40
2008,04,21,11,36,5.40
2008,04,21,11,37,5.50
2008,04,21,11,38,5.60
2008,04,21,11,39,5.70
2008,04,21,11,40,5.80
2008,04,21,11,41,5.80
2008,04,21,11,42,6.00
2008,04,21,11,43,6.10
2008,04,21,11,44,6.20
2008,04,21,11,45,6.00
2008,04,21,11,46,5.90
2008,04,21,11,47,6.00
2008,04,21,11,48,6.20
2008,04,21,11,49,6.30
2008,04,21,11,50,6.20
2008,04,21,11,51,6.10
2008,04,21,11,52,6.00
2008,04,21,11,53,6.00
2008,04,21,11,54,6.00
2008,04,21,11,55,6.20
2008,04,21,11,56,6.20
2008,04,21,11,57,6.30
2008,04,21,11,58,6.40
2008,04,21,11,59,6.50
2008,04,21,12,00,6.80
2008,04,21,12,01,6.80
2008,04,21,12,02,6.80
2008,04,21,12,03,6.90
2008,04,21,12,04,6.90
2008,04,21,12,05,6.80
2008,04,21,12,06,6.80
2008,04,21,12,07,7.00
2008,04,21,12,08,7.00
2008,04,21,12,09,7.00
2008,04,21,12,10,7.10
2008,04,21,12,11,7.10
2008,04,21,12,12,7.20
2008,04,21,12,13,7.40
2008,04,21,12,14,7.60
2008,04,21,12,15,7.60
2008,04,21,12,16,7.50
2008,04,21,12,17,7.50
2008,04,21,12,18,7.40
2008,04,21,12,19,7.30
2008,04,21,12,20,7.20
2008,04,21,12,21,7.40
2008,04,21,12,22,7.50
2008,04,21,12,23,7.50
2008,04,21,12,24,7.60
2008,04,21,12,25,7.40
2008,04,21,12,26,7.30
2008,04,21,12,27,7.30
2008,04,21,12,28,7.30
2008,04,21,12,29,7.40
2008,04,21,12,30,7.60
2008,04,21,12,31,7.60
2008,04,21,12,32,7.60
2008,04,21,12,33,7.40
2008,04,21,12,34,7.40
2008,04,21,12,35,7.30
2008,04,21,12,36,7.40
2008,04,21,12,37,7.50
2008,04,21,12,38,7.60
2008,04,21,12,39,7.60
2008,04,21,12,40,7.50
2008,04,21,12,41,7.40
2008,04,21,12,42,7.40
2008,04,21,12,43,7.50
2008,04,21,12,44,7.70
2008,04,21,12,45,7.80
2008,04,21,12,46,7.80
2008,04,21,12,47,7.80
2008,04,21,12,48,7.80
2008,04,21,12,49,7.90
2008,04,21,12,50,8.00
2008,04,21,12,51,7.80
2008,04,21,12,52,7.90
2008,04,21,12,53,7.90
2008,04,21,12,54,7.80
2008,04,21,12,55,7.80
2008,04,21,12,56,7.80
2008,04,21,12,57,7.90
2008,04,21,12,58,7.80
2008,04,21,12,59,7.80
2008,04,21,13,00,7.80
2008,04,21,13,01,7.80
2008,04,21,13,02,7.60
2008,04,21,13,03,7.60
2008,04,21,13,04,7.40
2008,04,21,13,05,7.30
2008,04,21,13,06,7.30
2008,04,21,13,07,7.40
2008,04,21,13,08,7.60
2008,04,21,13,09,7.70
2008,04,21,13,10,7.60
2008,04,21,13,11,7.60
2008,04,21,13,12,7.70
2008,04,21,13,13,7.70
2008,04,21,13,14,7.90
2008,04,21,13,15,8.00
2008,04,21,13,16,7.90
2008,04,21,13,17,7.70
2008,04,21,13,18,7.80
2008,04,21,13,19,7.70
2008,04,21,13,20,7.70
2008,04,21,13,21,7.70
2008,04,21,13,22,7.80
2008,04,21,13,23,7.80
2008,04,21,13,24,7.70
2008,04,21,13,25,7.80
2008,04,21,13,26,7.90
2008,04,21,13,27,8.00
2008,04,21,13,28,8.10
2008,04,21,13,29,8.10
2008,04,21,13,30,8.10
2008,04,21,13,31,8.00
2008,04,21,13,32,8.00
2008,04,21,13,33,7.90
2008,04,21,13,34,7.70
2008,04,21,13,35,7.50
2008,04,21,13,36,7.40
2008,04,21,13,37,7.40
2008,04,21,13,38,7.40
2008,04,21,13,39,7.40
2008,04,21,13,40,7.30
2008,04,21,13,41,7.40
2008,04,21,13,42,7.40
2008,04,21,13,43,7.40
2008,04,21,13,44,7.50
2008,04,21,13,45,7.50
2008,04,21,13,46,7.40
2008,04,21,13,47,7.30
2008,04,21,13,48,7.30
2008,04,21,13,49,7.30
2008,04,21,13,50,7.20
2008,04,21,13,51,7.10
2008,04,21,13,52,7.10
2008,04,21,13,53,7.00
2008,04,21,13,54,6.90
2008,04,21,13,55,6.90
2008,04,21,13,56,6.80
2008,04,21,13,57,6.80
2008,04,21,13,58,6.80
2008,04,21,13,59,7.00
2008,04,21,14,00,7.10
2008,04,21,14,01,7.10
2008,04,21,14,02,7.20
2008,04,21,14,03,7.30
2008,04,21,14,04,7.40
2008,04,21,14,05,7.60
2008,04,21,14,06,7.50
2008,04,21,14,07,7.50
2008,04,21,14,08,7.40
2008,04,21,14,09,7.30
2008,04,21,14,10,7.30
2008,04,21,14,11,7.40
2008,04,21,14,12,7.50
2008,04,21,14,13,7.60
2008,04,21,14,14,7.70
2008,04,21,14,15,7.70
2008,04,21,14,16,7.80
2008,04,21,14,17,7.80
2008,04,21,14,18,7.90
2008,04,21,14,19,8.00
2008,04,21,14,20,8.10
2008,04,21,14,21,8.20
2008,04,21,14,22,8.40
2008,04,21,14,23,8.50
2008,04,21,14,24,8.60
2008,04,21,14,25,8.70
2008,04,21,14,26,8.70
2008,04,21,14,27,8.60
2008,04,21,14,28,8.50
2008,04,21,14,29,8.40
2008,04,21,14,30,8.30
2008,04,21,14,31,8.10
2008,04,21,14,32,8.00
2008,04,21,14,33,8.00
2008,04,21,14,34,8.00
2008,04,21,14,35,7.90
2008,04,21,14,36,7.90
2008,04,21,14,37,7.90
2008,04,21,14,38,7.90
2008,04,21,14,39,7.80
2008,04,21,14,40,7.80
2008,04,21,14,41,7.80
2008,04,21,14,42,7.90
2008,04,21,14,43,7.80
2008,04,21,14,44,7.80
2008,04,21,14,45,7.80
2008,04,21,14,46,7.70
2008,04,21,14,47,7.70
2008,04,21,14,48,7.70
2008,04,21,14,49,7.70
2008,04,21,14,50,7.70
2008,04,21,14,51,7.60
2008,04,21,14,52,7.60
2008,04,21,14,53,7.60
2008,04,21,14,54,7.60
2008,04,21,14,55,7.60
2008,04,21,14,56,7.60
2008,04,21,14,57,7.70
2008,04,21,14,58,7.70
2008,04,21,14,59,7.70
2008,04,21,15,00,7.70
2008,04,21,15,01,7.60
2008,04,21,15,02,7.60
2008,04,21,15,03,7.60
2008,04,21,15,04,7.60
2008,04,21,15,05,7.60
2008,04,21,15,06,7.60
2008,04,21,15,07,7.50
2008,04,21,15,08,7.60
2008,04,21,15,09,7.60
2008,04,21,15,10,7.60
2008,04,21,15,11,7.70
2008,04,21,15,12,7.70
2008,04,21,15,13,7.80
2008,04,21,15,14,7.80
2008,04,21,15,15,7.80
2008,04,21,15,16,7.80
2008,04,21,15,17,7.80
2008,04,21,15,18,7.90
2008,04,21,15,19,8.00
2008,04,21,15,20,8.10
2008,04,21,15,21,8.10
2008,04,21,15,22,8.10
2008,04,21,15,23,8.10
2008,04,21,15,24,8.10
2008,04,21,15,25,8.10
2008,04,21,15,26,8.10
2008,04,21,15,27,8.10
2008,04,21,15,28,8.20
2008,04,21,15,29,8.30
2008,04,21,15,30,8.40
2008,04,21,15,31,8.60
2008,04,21,15,32,8.70
2008,04,21,15,33,8.80
2008,04,21,15,34,8.90
2008,04,21,15,35,9.00
2008,04,21,15,36,8.90
2008,04,21,15,37,8.90
2008,04,21,15,38,8.80
2008,04,21,15,39,8.80
2008,04,21,15,40,8.70
2008,04,21,15,41,8.70
2008,04,21,15,42,8.60
2008,04,21,15,43,8.50
2008,04,21,15,44,8.50
2008,04,21,15,45,8.40
2008,04,21,15,46,8.30
2008,04,21,15,47,8.30
2008,04,21,15,48,8.30
2008,04,21,15,49,8.30
2008,04,21,15,50,8.30
2008,04,21,15,51,8.40
2008,04,21,15,52,8.50
2008,04,21,15,53,8.60
2008,04,21,15,54,8.60
2008,04,21,15,55,8.70
2008,04,21,15,56,8.80
2008,04,21,15,57,8.90
2008,04,21,15,58,8.90
2008,04,21,15,59,8.90
2008,04,21,16,00,8.90
2008,04,21,16,01,8.90
2008,04,21,16,02,8.80
2008,04,21,16,03,8.70
2008,04,21,16,04,8.70
2008,04,21,16,05,8.80
2008,04,21,16,06,8.80
2008,04,21,16,07,8.70
2008,04,21,16,08,8.70
2008,04,21,16,09,8.60
2008,04,21,16,10,8.50
2008,04,21,16,11,8.40
2008,04,21,16,12,8.40
2008,04,21,16,13,8.40
2008,04,21,16,14,8.40
2008,04,21,16,15,8.40
2008,04,21,16,16,8.40
2008,04,21,16,17,8.30
2008,04,21,16,18,8.30
2008,04,21,16,19,8.30
2008,04,21,16,20,8.30
2008,04,21,16,21,8.30
2008,04,21,16,22,8.20
2008,04,21,16,23,8.20
2008,04,21,16,24,8.20
2008,04,21,16,25,8.20
2008,04,21,16,26,8.20
2008,04,21,16,27,8.00
2008,04,21,16,28,8.00
2008,04,21,16,29,8.00
2008,04,21,16,30,8.00
2008,04,21,16,31,7.90
2008,04,21,16,32,8.00
2008,04,21,16,33,8.00
2008,04,21,16,34,7.90
2008,04,21,16,35,8.00
2008,04,21,16,36,8.00
2008,04,21,16,37,8.00
2008,04,21,16,38,8.10
2008,04,21,16,39,8.20
2008,04,21,16,40,8.20
2008,04,21,16,41,8.20
2008,04,21,16,42,8.20
2008,04,21,16,43,8.20
2008,04,21,16,44,8.20
2008,04,21,16,45,8.30
2008,04,21,16,46,8.30
2008,04,21,16,47,8.30
2008,04,21,16,48,8.40
2008,04,21,16,49,8.50
2008,04,21,16,50,8.50
2008,04,21,16,51,8.60
2008,04,21,16,52,8.70
2008,04,21,16,53,8.90
2008,04,21,16,54,8.90
2008,04,21,16,55,8.70
2008,04,21,16,56,8.70
2008,04,21,16,57,8.70
2008,04,21,16,58,8.70
2008,04,21,16,59,8.80
2008,04,21,17,00,8.90
2008,04,21,17,01,8.90
2008,04,21,17,02,9.00
2008,04,21,17,03,9.00
2008,04,21,17,04,9.00
2008,04,21,17,05,9.00
2008,04,21,17,06,8.80
2008,04,21,17,07,8.70
2008,04,21,17,08,8.70
2008,04,21,17,09,8.70
2008,04,21,17,10,8.70
2008,04,21,17,11,8.70
2008,04,21,17,12,8.70
2008,04,21,17,13,8.60
2008,04,21,17,14,8.50
2008,04,21,17,15,8.40
2008,04,21,17,16,8.30
2008,04,21,17,17,8.20
2008,04,21,17,18,8.20
2008,04,21,17,19,8.20
2008,04,21,17,20,8.20
2008,04,21,17,21,8.20
2008,04,21,17,22,8.20
2008,04,21,17,23,8.20
2008,04,21,17,24,8.20
2008,04,21,17,25,8.20
2008,04,21,17,26,8.20
2008,04,21,17,27,8.20
2008,04,21,17,28,8.20
2008,04,21,17,29,8.20
2008,04,21,17,30,8.10
2008,04,21,17,31,8.10
2008,04,21,17,32,8.00
2008,04,21,17,33,8.00
2008,04,21,17,34,8.00
2008,04,21,17,35,8.00
2008,04,21,17,36,8.00
2008,04,21,17,37,8.00
2008,04,21,17,38,8.00
2008,04,21,17,39,8.00
2008,04,21,17,40,8.00
2008,04,21,17,41,8.00
2008,04,21,17,42,8.00
2008,04,21,17,43,8.00
2008,04,21,17,44,8.10
2008,04,21,17,45,8.10
2008,04,21,17,46,7.90
2008,04,21,17,47,7.90
2008,04,21,17,48,7.90
2008,04,21,17,49,7.90
2008,04,21,17,50,7.80
2008,04,21,17,51,7.80
2008,04,21,17,52,7.80
2008,04,21,17,53,7.70
2008,04,21,17,54,7.60
2008,04,21,17,55,7.60
2008,04,21,17,56,7.60
2008,04,21,17,57,7.60
2008,04,21,17,58,7.50
2008,04,21,17,59,7.50
2008,04,21,18,00,7.40
2008,04,21,18,01,7.50
2008,04,21,18,02,7.40
2008,04,21,18,03,7.40
2008,04,21,18,04,7.40
2008,04,21,18,05,7.30
2008,04,21,18,06,7.30